Starlink 35543

operational
NORAD ID: 66202 Int'l Des: 2025-243 Owner: SPXS Country: US Constellation: starlink
LEOCIRCULAR

About Starlink 35543

Description loading...

Live Position

Loading 3D Globe...

Upcoming Passes

Altitude History

Altitude vs Time

uPlot chart will show altitude changes over time

Two-Line Element Set

1 66202U 25243AB 25310.33823251 .00532735 00000-0 23744-2 0 9997
2 66202 53.1524 102.8358 0008596 242.6115 117.4034 15.82301986 1705
Epoch: Nov 6, 2025 • Age: 19 hours

Current Status

Altitude 323.5 km
Velocity 7.72 km/s
Sub-Earth Point -22.53°S, 157.45°W
Launch Date Oct 26, 2025
Age 11 days
Type internet

Technical Details

Classification Payload
Mass 575.00 kg
Dry Mass 530.00 kg
Total Mass 575.00 kg
Length 0.30 m
Diameter 4.10 m
Span 29.00 m
Shape Box + pan
Manufacturer SPXS
Bus Type Starlink V2MO
Phase Status In Orbit
Owner/State SPXS/US

Large Constellations

Loading constellations...